Regional Weather Roundup
Issued by NWS

Home | Current Version | Previous Version | Graphics & Text | Print | Product List | Glossary On
Versions: 1 2 3 4 5 6 7 8 9 10 11 12 13 14 15 16 17 18 19 20 21 22 23 24 25 26 27 28 29 30 31 32 33 34 35 36 37 38 39 40 41 42 43 44 45 46 47 48 49 50
000
ASUS43 KLSX 030159
RWRMO

WEATHER SUMMARY FOR MISSOURI
NATIONAL WEATHER SERVICE SPRINGFIELD MO
900 PM CDT SUN AUG 02 2015

NOTE: "FAIR" INDICATES FEW OR NO CLOUDS BELOW 12,000 FEET WITH NO
       SIGNIFICANT WEATHER AND/OR OBSTRUCTIONS TO VISIBILITY.
       CURRENT SKY AND/OR WEATHER CONDITIONS ARE NOT AVAILABLE FOR
       CHILLICOTHE AND FARMINGTON.

MOZ001>031-035>038-043-044-053-054-030300-
...NORTHERN AND WESTERN MISSOURI...

CITY           SKY/WX    TMP DP  RH WIND       PRES   REMARKS
KANSAS CTY INT MOCLDY    79  72  79 SW7       29.84F
KANSAS C DTWN  PTCLDY    87  70  56 SW6       29.82F HX  92
LEE`S SUMMIT   MOCLDY    84  67  56 S7        29.85F
ST JOSEPH        N/A     81  75  82 SW5       29.81F
CHILLICOTHE      N/A     83  72  69 CALM      29.85R
KIRKSVILLE     TSTM      71  61  70 N25G49    29.97R

$$
MOZ066>068-077>081-088>096-101>105-030300-
...SOUTHWEST MISSOURI...

CITY           SKY/WX    TMP DP  RH WIND       PRES   REMARKS
SPRINGFIELD    CLEAR     77  66  68 SW5       29.92R
JOPLIN         CLEAR     79  64  60 S6        29.90S

$$
MOZ032>034-039>042-045>050-055>058-069>072-030300-
...CENTRAL MISSOURI...

CITY           SKY/WX    TMP DP  RH WIND       PRES   REMARKS
COLUMBIA       CLEAR     78  70  76 S8        29.86S
JEFFERSON CITY CLEAR     84  68  58 S5        29.84R
ROLLA          CLEAR     74  68  81 S6        29.88R
SEDALIA        PTCLDY    81  67  62 S7        29.87R
WHITEMAN AFB   PTCLDY    78  69  73 SW8       29.84F
WARRENSBURG    PTCLDY    81  64  57 S5        29.85S
OSAGE BEACH    CLEAR     81  70  69 CALM      29.88S

$$
MOZ051-052-059>065-030300-
...EAST CENTRAL MISSOURI...

CITY           SKY/WX    TMP DP  RH WIND       PRES   REMARKS
ST LOUIS INTL  PTCLDY    88  66  48 SW7       29.84S HX  90
SPIRIT OF STL  CLEAR     80  70  71 CALM      29.83S
ST CHARLES     CLEAR     81  69  67 SW7       29.82S

$$
MOZ072>076-082>087-097>100-106>115-030300-
...SOUTH CENTRAL AND SOUTHEAST MISSOURI...

CITY           SKY/WX    TMP DP  RH WIND       PRES   REMARKS
CAPE GIRARDEAU CLEAR     79  71  76 S5        29.86S
FARMINGTON     CLEAR     81  72  74 CALM      29.93R
POPLAR BLUFF   CLEAR     81  72  74 SW3       29.86S
WEST PLAINS    CLEAR     78  69  73 CALM      29.93R

$$



USA.gov is the U.S. government's official web portal to all federal, state and local government web resources and services.